SAZ53 LRTM-LSZH

Flight info

Callsign SAZ53
Flight time 1h 46m
Altitude 38000
Route ELROM Y572 BUDOP/N0456F380 DCT SIRDU/N0459F400 DCT ARSIN DCT TRAUN DCT RAVED L856 NEGRA
Aircraft CL60/M-SBDE1E2E3FGHIJ1J4J5J7M3RWXYZ/LB1V1D1

Departure

Time 2026-05-08 16:36
Airport Târgu Mureş Transilvania International Airport (LRTM)

Arrival

Time 2026-05-08 18:22
Airport Zürich Airport (LSZH)
Time Latitude Longitude Altitude Speed Heading
2026-05-08 16:22 46.46827 24.42514 962 ft 0 kts 319°
2026-05-08 16:33 46.46838 24.42502 961 ft 6 kts 328°
2026-05-08 16:33 46.46887 24.42541 961 ft 11 kts 349°
2026-05-08 16:34 46.46897 24.42536 961 ft 0 kts 341°
2026-05-08 16:34 46.46922 24.42525 961 ft 8 kts 342°
2026-05-08 16:34 46.46999 24.42495 961 ft 12 kts 345°
2026-05-08 16:35 46.47007 24.42456 961 ft 0 kts 254°
2026-05-08 16:35 46.46955 24.42187 959 ft 79 kts 255°
2026-05-08 16:36 46.46719 24.40967 1001 ft 160 kts 256°
2026-05-08 16:36 46.46393 24.39313 1602 ft 182 kts 256°
2026-05-08 16:36 46.46073 24.37486 2459 ft 196 kts 257°
2026-05-08 16:36 46.45704 24.35565 3407 ft 206 kts 255°
2026-05-08 16:37 46.45309 24.33574 4450 ft 210 kts 258°
2026-05-08 16:37 46.44955 24.31570 5474 ft 214 kts 255°
2026-05-08 16:37 46.44545 24.29407 6137 ft 239 kts 260°
2026-05-08 16:37 46.44708 24.26889 6776 ft 266 kts 294°
2026-05-08 16:38 46.45904 24.24813 7441 ft 280 kts 327°
2026-05-08 16:38 46.47674 24.23605 8066 ft 283 kts 336°
2026-05-08 16:38 46.49482 24.22493 8684 ft 284 kts 335°
2026-05-08 16:38 46.51317 24.21306 9532 ft 298 kts 334°
2026-05-08 16:39 46.53200 24.20028 10572 ft 309 kts 333°
2026-05-08 16:39 46.55176 24.18622 11581 ft 321 kts 332°
2026-05-08 16:39 46.57175 24.17133 12657 ft 328 kts 331°
2026-05-08 16:39 46.59186 24.15569 13697 ft 333 kts 330°
2026-05-08 16:40 46.61202 24.13934 14697 ft 339 kts 329°
2026-05-08 16:40 46.63253 24.12204 15652 ft 345 kts 327°
2026-05-08 16:40 46.65305 24.10407 16579 ft 350 kts 326°
2026-05-08 16:40 46.67384 24.08522 17481 ft 355 kts 325°
2026-05-08 16:41 46.69471 24.06545 18356 ft 359 kts 323°
2026-05-08 16:41 46.71530 24.04542 19223 ft 362 kts 323°
2026-05-08 16:41 46.73631 24.02495 20069 ft 366 kts 323°
2026-05-08 16:42 46.77264 23.97460 21663 ft 362 kts 296°
2026-05-08 16:42 46.78136 23.94075 22365 ft 362 kts 281°
2026-05-08 16:42 46.78601 23.90437 23059 ft 366 kts 279°
2026-05-08 16:42 46.79050 23.86805 23780 ft 369 kts 279°
2026-05-08 16:43 46.79507 23.83133 24526 ft 371 kts 279°
2026-05-08 16:43 46.79934 23.79401 25213 ft 374 kts 274°
2026-05-08 16:43 46.79846 23.75649 25855 ft 375 kts 263°
2026-05-08 16:43 46.79552 23.71825 26428 ft 380 kts 263°
2026-05-08 16:44 46.79268 23.68023 27014 ft 383 kts 263°
2026-05-08 16:44 46.78979 23.64183 27616 ft 385 kts 263°
2026-05-08 16:44 46.78684 23.60274 28167 ft 387 kts 263°
2026-05-08 16:44 46.78387 23.56352 28664 ft 390 kts 263°
2026-05-08 16:45 46.78090 23.52452 29127 ft 394 kts 263°
2026-05-08 16:45 46.77784 23.48455 29607 ft 397 kts 263°
2026-05-08 16:45 46.77476 23.44442 30097 ft 399 kts 263°
2026-05-08 16:45 46.77169 23.40462 30541 ft 401 kts 263°
2026-05-08 16:46 46.76854 23.36401 30982 ft 403 kts 263°
2026-05-08 16:46 46.76539 23.32353 31406 ft 405 kts 262°
2026-05-08 16:46 46.76218 23.28251 31801 ft 407 kts 262°
2026-05-08 16:46 46.75897 23.24163 32183 ft 409 kts 262°
2026-05-08 16:47 46.75568 23.19994 32543 ft 411 kts 262°
2026-05-08 16:47 46.75243 23.15889 32902 ft 412 kts 262°
2026-05-08 16:47 46.74908 23.11692 33226 ft 413 kts 262°
2026-05-08 16:47 46.74577 23.07553 33500 ft 415 kts 262°
2026-05-08 16:48 46.74247 23.03349 33772 ft 417 kts 263°
2026-05-08 16:48 46.74071 22.99090 34084 ft 418 kts 266°
2026-05-08 16:48 46.73955 22.94876 34389 ft 418 kts 266°
2026-05-08 16:48 46.73834 22.90622 34685 ft 418 kts 266°
2026-05-08 16:49 46.73711 22.86374 34966 ft 417 kts 266°
2026-05-08 16:49 46.73588 22.82201 35235 ft 416 kts 266°
2026-05-08 16:49 46.73461 22.77959 35516 ft 415 kts 266°
2026-05-08 16:49 46.73334 22.73785 35758 ft 415 kts 266°
2026-05-08 16:50 46.73204 22.69571 35997 ft 415 kts 266°
2026-05-08 16:50 46.73072 22.65359 36154 ft 417 kts 266°
2026-05-08 16:50 46.72939 22.61145 36313 ft 418 kts 266°
2026-05-08 16:50 46.72802 22.56896 36460 ft 419 kts 266°
2026-05-08 16:51 46.72661 22.52612 36681 ft 420 kts 266°
2026-05-08 16:51 46.72521 22.48411 36961 ft 418 kts 266°
2026-05-08 16:51 46.72378 22.44165 37254 ft 417 kts 266°
2026-05-08 16:51 46.72235 22.39946 37498 ft 416 kts 266°
2026-05-08 16:52 46.72091 22.35777 37692 ft 416 kts 266°
2026-05-08 16:52 46.71943 22.31544 37910 ft 416 kts 265°
2026-05-08 16:52 46.71796 22.27376 38031 ft 417 kts 265°
2026-05-08 16:53 46.71337 22.14637 38017 ft 419 kts 266°
2026-05-08 16:53 46.71026 22.06203 38015 ft 417 kts 265°
2026-05-08 16:54 46.70708 21.97777 38009 ft 416 kts 266°
2026-05-08 16:54 46.70386 21.89377 38008 ft 417 kts 265°
2026-05-08 16:55 46.70055 21.80952 38007 ft 417 kts 265°
2026-05-08 16:55 46.69718 21.72516 38006 ft 418 kts 265°
2026-05-08 16:56 46.69370 21.63977 38001 ft 425 kts 265°
2026-05-08 16:56 46.69015 21.55402 38006 ft 430 kts 265°
2026-05-08 16:57 46.69255 21.46609 38003 ft 438 kts 278°
2026-05-08 16:57 46.70576 21.37962 38004 ft 440 kts 280°
2026-05-08 16:58 46.71916 21.29314 38009 ft 439 kts 279°
2026-05-08 16:58 46.73249 21.20661 38003 ft 438 kts 279°
2026-05-08 16:59 46.74580 21.11964 38002 ft 437 kts 280°
2026-05-08 16:59 46.75890 21.03343 37999 ft 437 kts 279°
2026-05-08 17:00 46.77194 20.94718 37990 ft 437 kts 279°
2026-05-08 17:00 46.78496 20.86055 37994 ft 437 kts 279°
2026-05-08 17:01 46.79784 20.77436 37994 ft 437 kts 279°
2026-05-08 17:01 46.81074 20.68749 37993 ft 438 kts 279°
2026-05-08 17:02 46.82355 20.60072 38000 ft 438 kts 279°
2026-05-08 17:02 46.83629 20.51394 38001 ft 438 kts 279°
2026-05-08 17:03 46.84893 20.42737 37992 ft 438 kts 279°
2026-05-08 17:03 46.86153 20.34053 38003 ft 438 kts 279°
2026-05-08 17:04 46.87411 20.25340 38003 ft 438 kts 279°
2026-05-08 17:04 46.88664 20.16605 37998 ft 438 kts 279°
2026-05-08 17:05 46.89909 20.07875 38008 ft 439 kts 279°
2026-05-08 17:05 46.91148 19.99140 38003 ft 438 kts 279°
2026-05-08 17:06 46.92379 19.90409 38009 ft 438 kts 279°
2026-05-08 17:06 46.93601 19.81692 38004 ft 437 kts 279°
2026-05-08 17:07 46.94805 19.73047 38005 ft 437 kts 279°
2026-05-08 17:07 46.96009 19.64354 38013 ft 436 kts 279°
2026-05-08 17:08 46.97208 19.55645 38011 ft 437 kts 279°
2026-05-08 17:08 46.98405 19.46902 38010 ft 437 kts 279°
2026-05-08 17:09 46.99586 19.38222 38013 ft 438 kts 279°
2026-05-08 17:09 47.00778 19.29404 38003 ft 438 kts 278°
2026-05-08 17:10 47.01952 19.20670 38010 ft 438 kts 278°
2026-05-08 17:10 47.03119 19.11931 38011 ft 438 kts 278°
2026-05-08 17:11 47.04285 19.03146 38013 ft 439 kts 278°
2026-05-08 17:11 47.05444 18.94370 38006 ft 438 kts 278°
2026-05-08 17:12 47.06591 18.85619 38000 ft 438 kts 278°
2026-05-08 17:12 47.07735 18.76843 38008 ft 438 kts 278°
2026-05-08 17:13 47.08872 18.68057 38009 ft 438 kts 278°
2026-05-08 17:13 47.10002 18.59275 38003 ft 438 kts 278°
2026-05-08 17:14 47.11118 18.50547 38009 ft 439 kts 278°
2026-05-08 17:14 47.12241 18.41706 38007 ft 439 kts 278°
2026-05-08 17:15 47.13343 18.32973 38015 ft 439 kts 278°
2026-05-08 17:15 47.14447 18.24169 38008 ft 440 kts 277°
2026-05-08 17:16 47.15553 18.15287 38016 ft 440 kts 277°
2026-05-08 17:16 47.16647 18.06456 38021 ft 440 kts 277°
2026-05-08 17:17 47.17727 17.97669 38034 ft 439 kts 277°
2026-05-08 17:17 47.18807 17.88831 38050 ft 440 kts 277°
2026-05-08 17:18 47.19875 17.80027 38045 ft 439 kts 277°
2026-05-08 17:18 47.20941 17.71179 38043 ft 439 kts 278°
2026-05-08 17:19 47.21997 17.62357 38043 ft 440 kts 277°
2026-05-08 17:19 47.23047 17.53525 38047 ft 440 kts 277°
2026-05-08 17:20 47.24094 17.44655 38045 ft 440 kts 278°
2026-05-08 17:20 47.25577 17.35907 38046 ft 444 kts 288°
2026-05-08 17:21 47.28465 17.27821 38038 ft 451 kts 301°
2026-05-08 17:21 47.32350 17.20545 38032 ft 453 kts 304°
2026-05-08 17:22 47.36262 17.13325 38043 ft 453 kts 304°
2026-05-08 17:22 47.40206 17.06029 38036 ft 453 kts 304°
2026-05-08 17:23 47.44108 16.98795 38037 ft 453 kts 304°
2026-05-08 17:23 47.48039 16.91489 38041 ft 453 kts 304°
2026-05-08 17:24 47.51978 16.84149 38044 ft 454 kts 304°
2026-05-08 17:24 47.55459 16.76452 38252 ft 446 kts 293°
2026-05-08 17:25 47.56652 16.72324 38627 ft 436 kts 287°
2026-05-08 17:25 47.57510 16.68053 38952 ft 428 kts 281°
2026-05-08 17:25 47.58066 16.63808 39154 ft 425 kts 278°
2026-05-08 17:25 47.58559 16.59461 39280 ft 424 kts 278°
2026-05-08 17:26 47.59536 16.50877 39412 ft 425 kts 278°
2026-05-08 17:26 47.60514 16.42251 39549 ft 426 kts 278°
2026-05-08 17:27 47.61491 16.33588 39666 ft 427 kts 277°
2026-05-08 17:27 47.62461 16.24926 39774 ft 428 kts 277°
2026-05-08 17:28 47.63425 16.16274 39899 ft 429 kts 277°
2026-05-08 17:28 47.64390 16.07566 40049 ft 428 kts 277°
2026-05-08 17:29 47.65345 15.98872 40070 ft 430 kts 277°
2026-05-08 17:29 47.66305 15.90085 40077 ft 431 kts 277°
2026-05-08 17:30 47.67250 15.81367 40067 ft 430 kts 277°
2026-05-08 17:30 47.68191 15.72626 40066 ft 431 kts 277°
2026-05-08 17:31 47.69136 15.63789 40074 ft 434 kts 277°
2026-05-08 17:31 47.70072 15.54967 40073 ft 438 kts 278°
2026-05-08 17:32 47.71016 15.45997 40076 ft 441 kts 277°
2026-05-08 17:32 47.71961 15.36956 40079 ft 445 kts 277°
2026-05-08 17:33 47.72904 15.27854 40079 ft 448 kts 277°
2026-05-08 17:33 47.73842 15.18738 40075 ft 450 kts 277°
2026-05-08 17:34 47.74778 15.09563 40077 ft 450 kts 277°
2026-05-08 17:34 47.75703 15.00424 40071 ft 449 kts 277°
2026-05-08 17:35 47.76625 14.91242 40072 ft 449 kts 277°
2026-05-08 17:35 47.77533 14.82132 40076 ft 449 kts 277°
2026-05-08 17:36 47.78440 14.72942 40073 ft 450 kts 277°
2026-05-08 17:36 47.79339 14.63763 40071 ft 450 kts 277°
2026-05-08 17:37 47.80230 14.54590 40068 ft 450 kts 277°
2026-05-08 17:37 47.81122 14.45320 40064 ft 450 kts 277°
2026-05-08 17:38 47.81995 14.36171 40060 ft 450 kts 277°
2026-05-08 17:38 47.82868 14.26951 40053 ft 451 kts 276°
2026-05-08 17:39 47.83731 14.17750 40059 ft 451 kts 276°
2026-05-08 17:39 47.84587 14.08543 40059 ft 450 kts 276°
2026-05-08 17:40 47.85434 13.99343 40064 ft 451 kts 276°
2026-05-08 17:40 47.86278 13.90105 40063 ft 451 kts 276°
2026-05-08 17:41 47.87114 13.80857 40066 ft 452 kts 276°
2026-05-08 17:41 47.87945 13.71588 40058 ft 453 kts 276°
2026-05-08 17:42 47.88773 13.62266 40059 ft 453 kts 276°
2026-05-08 17:42 47.89590 13.52988 40058 ft 453 kts 276°
2026-05-08 17:43 47.90400 13.43697 40058 ft 453 kts 276°
2026-05-08 17:43 47.91198 13.34453 40059 ft 453 kts 276°
2026-05-08 17:44 47.91997 13.25107 40055 ft 453 kts 276°
2026-05-08 17:44 47.92781 13.15846 40058 ft 453 kts 276°
2026-05-08 17:45 47.93561 13.06538 40056 ft 454 kts 276°
2026-05-08 17:45 47.94337 12.97193 40060 ft 454 kts 276°
2026-05-08 17:46 47.95100 12.87910 40058 ft 454 kts 276°
2026-05-08 17:46 47.95860 12.78571 40053 ft 454 kts 276°
2026-05-08 17:47 47.96609 12.69271 40054 ft 454 kts 276°
2026-05-08 17:47 47.97221 12.61447 40056 ft 454 kts 274°
2026-05-08 17:48 47.96886 12.50517 40052 ft 453 kts 263°
2026-05-08 17:48 47.96207 12.41209 40050 ft 453 kts 264°
2026-05-08 17:49 47.95525 12.31923 40053 ft 453 kts 263°
2026-05-08 17:49 47.94833 12.22591 40059 ft 453 kts 263°
2026-05-08 17:50 47.94138 12.13310 40049 ft 453 kts 263°
2026-05-08 17:50 47.93432 12.03969 40055 ft 452 kts 263°
2026-05-08 17:51 47.92725 11.94722 40053 ft 453 kts 263°
2026-05-08 17:51 47.92004 11.85372 40046 ft 453 kts 263°
2026-05-08 17:52 47.91281 11.76109 40053 ft 453 kts 263°
2026-05-08 17:53 47.90182 11.62187 40055 ft 454 kts 263°
2026-05-08 17:53 47.89434 11.52836 40049 ft 454 kts 263°
2026-05-08 17:54 47.88680 11.43519 40057 ft 453 kts 263°
2026-05-08 17:54 47.87923 11.34248 40052 ft 453 kts 263°
2026-05-08 17:55 47.87157 11.24962 40046 ft 453 kts 263°
2026-05-08 17:55 47.86386 11.15708 40051 ft 453 kts 263°
2026-05-08 17:56 47.85603 11.06401 40059 ft 453 kts 263°
2026-05-08 17:56 47.84825 10.97231 40069 ft 442 kts 263°
2026-05-08 17:57 47.84056 10.88261 40070 ft 438 kts 263°
2026-05-08 17:57 47.83281 10.79313 40074 ft 435 kts 263°
2026-05-08 17:58 47.82501 10.70380 40063 ft 438 kts 263°
2026-05-08 17:58 47.81712 10.61430 39920 ft 442 kts 263°
2026-05-08 17:58 47.81307 10.56874 39401 ft 443 kts 263°
2026-05-08 17:59 47.80906 10.52379 38884 ft 442 kts 263°
2026-05-08 17:59 47.80500 10.47853 38340 ft 441 kts 263°
2026-05-08 17:59 47.80094 10.43344 37684 ft 438 kts 263°
2026-05-08 17:59 47.79691 10.38885 37177 ft 436 kts 262°
2026-05-08 18:00 47.79287 10.34432 36623 ft 438 kts 262°
2026-05-08 18:00 47.78472 10.25528 35487 ft 436 kts 262°
2026-05-08 18:00 47.78062 10.21078 34880 ft 438 kts 262°
2026-05-08 18:01 47.77649 10.16606 34191 ft 438 kts 262°
2026-05-08 18:01 47.77241 10.12212 33689 ft 430 kts 262°
2026-05-08 18:01 47.76835 10.07857 33129 ft 425 kts 262°
2026-05-08 18:01 47.76428 10.03510 32584 ft 422 kts 262°
2026-05-08 18:02 47.76028 9.99260 32028 ft 420 kts 261°
2026-05-08 18:02 47.75759 9.96404 31660 ft 418 kts 261°
2026-05-08 18:02 47.75225 9.90768 30912 ft 414 kts 261°
2026-05-08 18:02 47.74824 9.86556 30367 ft 408 kts 261°
2026-05-08 18:03 47.74432 9.82449 29844 ft 404 kts 261°
2026-05-08 18:03 47.74038 9.78336 29320 ft 402 kts 261°
2026-05-08 18:03 47.73642 9.74234 28773 ft 400 kts 261°
2026-05-08 18:03 47.73251 9.70189 28268 ft 398 kts 261°
2026-05-08 18:04 47.72913 9.66096 27716 ft 395 kts 265°
2026-05-08 18:04 47.72781 9.62031 27196 ft 393 kts 267°
2026-05-08 18:04 47.72673 9.58024 26687 ft 390 kts 267°
2026-05-08 18:04 47.72562 9.54021 26154 ft 386 kts 267°
2026-05-08 18:05 47.72451 9.50102 25654 ft 380 kts 267°
2026-05-08 18:05 47.72313 9.46248 25145 ft 373 kts 263°
2026-05-08 18:05 47.71677 9.42561 24651 ft 365 kts 247°
2026-05-08 18:05 47.70380 9.39348 24147 ft 360 kts 233°
2026-05-08 18:06 47.68833 9.36515 23649 ft 355 kts 232°
2026-05-08 18:06 47.67279 9.33685 23198 ft 349 kts 231°
2026-05-08 18:06 47.65762 9.30922 22739 ft 351 kts 231°
2026-05-08 18:06 47.64202 9.28082 22271 ft 354 kts 231°
2026-05-08 18:07 47.62644 9.25249 21800 ft 353 kts 231°
2026-05-08 18:07 47.61115 9.22472 21331 ft 351 kts 231°
2026-05-08 18:07 47.59703 9.19544 20869 ft 347 kts 242°
2026-05-08 18:07 47.58935 9.16202 20396 ft 340 kts 258°
2026-05-08 18:08 47.58521 9.12810 19931 ft 335 kts 259°
2026-05-08 18:08 47.58109 9.09444 19494 ft 329 kts 259°
2026-05-08 18:08 47.57717 9.06157 19073 ft 323 kts 262°
2026-05-08 18:08 47.57765 9.02889 18642 ft 319 kts 281°
2026-05-08 18:09 47.58461 8.99809 18204 ft 317 kts 291°
2026-05-08 18:09 47.59291 8.96815 17773 ft 313 kts 290°
2026-05-08 18:09 47.60105 8.93849 17369 ft 309 kts 290°
2026-05-08 18:09 47.60909 8.90913 16948 ft 306 kts 290°
2026-05-08 18:10 47.61710 8.87979 16567 ft 307 kts 290°
2026-05-08 18:10 47.62501 8.85075 16150 ft 309 kts 290°
2026-05-08 18:10 47.63112 8.82063 15749 ft 305 kts 276°
2026-05-08 18:10 47.62995 8.78941 15304 ft 301 kts 254°
2026-05-08 18:11 47.62281 8.76105 14911 ft 297 kts 246°
2026-05-08 18:11 47.61474 8.73250 14482 ft 298 kts 247°
2026-05-08 18:11 47.60686 8.70441 14126 ft 296 kts 247°
2026-05-08 18:11 47.59893 8.67623 13713 ft 296 kts 247°
2026-05-08 18:12 47.59177 8.64794 13329 ft 294 kts 256°
2026-05-08 18:12 47.59022 8.61804 12879 ft 295 kts 275°
2026-05-08 18:12 47.59595 8.58904 12447 ft 296 kts 296°
2026-05-08 18:12 47.60839 8.56451 11938 ft 300 kts 314°
2026-05-08 18:13 47.62363 8.54375 11569 ft 297 kts 316°
2026-05-08 18:13 47.63869 8.52324 11148 ft 296 kts 315°
2026-05-08 18:13 47.65371 8.50271 10780 ft 293 kts 315°
2026-05-08 18:13 47.66859 8.48235 10383 ft 290 kts 316°
2026-05-08 18:14 47.68331 8.46219 10005 ft 286 kts 316°
2026-05-08 18:14 47.69792 8.44216 9625 ft 284 kts 316°
2026-05-08 18:14 47.71232 8.42240 9260 ft 282 kts 316°
2026-05-08 18:14 47.72593 8.40154 8857 ft 282 kts 305°
2026-05-08 18:15 47.73423 8.37566 8373 ft 282 kts 283°
2026-05-08 18:15 47.73518 8.34717 7927 ft 279 kts 260°
2026-05-08 18:15 47.72849 8.32034 7367 ft 280 kts 237°
2026-05-08 18:15 47.71511 8.29974 6957 ft 277 kts 214°
2026-05-08 18:16 47.69764 8.28791 6485 ft 278 kts 194°
2026-05-08 18:16 47.67852 8.28624 6043 ft 276 kts 172°
2026-05-08 18:16 47.66049 8.29470 5472 ft 278 kts 150°
2026-05-08 18:16 47.64537 8.31229 5061 ft 271 kts 135°
2026-05-08 18:17 47.63193 8.33124 4754 ft 264 kts 135°
2026-05-08 18:17 47.61853 8.34937 4393 ft 259 kts 135°
2026-05-08 18:17 47.60560 8.36708 4083 ft 246 kts 135°
2026-05-08 18:17 47.59360 8.38348 4052 ft 223 kts 135°
2026-05-08 18:18 47.58275 8.39835 4041 ft 202 kts 135°
2026-05-08 18:18 47.57262 8.41225 3727 ft 197 kts 135°
2026-05-08 18:18 47.56295 8.42551 3470 ft 184 kts 135°
2026-05-08 18:18 47.55374 8.43811 3268 ft 172 kts 134°
2026-05-08 18:19 47.54516 8.44986 3058 ft 170 kts 134°
2026-05-08 18:19 47.53650 8.46173 2818 ft 168 kts 134°
2026-05-08 18:19 47.52822 8.47304 2625 ft 151 kts 135°
2026-05-08 18:19 47.52079 8.48318 2426 ft 141 kts 134°
2026-05-08 18:20 47.51375 8.49282 2234 ft 134 kts 135°
2026-05-08 18:20 47.50702 8.50204 2067 ft 133 kts 135°
2026-05-08 18:20 47.50020 8.51128 1891 ft 131 kts 136°
2026-05-08 18:20 47.49345 8.52046 1715 ft 132 kts 136°
2026-05-08 18:21 47.48676 8.52977 1565 ft 131 kts 134°
2026-05-08 18:21 47.48023 8.53863 1405 ft 122 kts 137°
2026-05-08 18:21 47.47473 8.54616 1382 ft 93 kts 136°
2026-05-08 18:21 47.47057 8.55183 1384 ft 73 kts 138°
2026-05-08 18:22 47.46725 8.55634 1387 ft 55 kts 137°
2026-05-08 18:22 47.46520 8.55885 1391 ft 25 kts 150°
2026-05-08 18:22 47.46350 8.55963 1393 ft 26 kts 167°
2026-05-08 18:22 47.46238 8.55997 1396 ft 14 kts 163°
2026-05-08 18:23 47.46145 8.56080 1398 ft 16 kts 138°
2026-05-08 18:23 47.46058 8.56199 1400 ft 17 kts 137°
2026-05-08 18:23 47.45967 8.56320 1403 ft 17 kts 137°
2026-05-08 18:23 47.45872 8.56450 1406 ft 19 kts 137°
2026-05-08 18:24 47.45797 8.56606 1408 ft 19 kts 95°
2026-05-08 18:24 47.45782 8.56806 1411 ft 19 kts 96°
2026-05-08 18:24 47.45758 8.57005 1414 ft 19 kts 120°
2026-05-08 18:24 47.45741 8.57160 1418 ft 8 kts 96°
2026-05-08 18:25 47.45735 8.57245 1420 ft 8 kts 94°
2026-05-08 18:25 47.45752 8.57297 1422 ft 0 kts 21°
2026-05-08 18:25 47.45753 8.57297 1422 ft 0 kts 21°
2026-05-08 18:25 47.45781 8.57299 1422 ft 3 kts 331°
2026-05-08 18:26 47.45791 8.57288 1421 ft 0 kts 324°
2026-05-08 18:35 47.45792 8.57287 1422 ft 0 kts 325°
2026-05-08 18:35 47.45789 8.57290 1421 ft 2 kts 337°
2026-05-08 18:35 47.45780 8.57297 1422 ft 0 kts 323°